Voltar ao catálogo

QIANFAN-155

AtivoComunicaçõesPO
NORAD 69114·PAYLOAD·🇨🇳 China

Lançado May 17, 2026 de Wenchang Space Launch Site

Loading…

Próximas Passagens (próximas 24 horas)

TLE

AtualizadoSource: Space-Track

Época: Sep 14, 2026, 22:16 UTC

1 69114U 26108L   26257.92836956  .00000090  00000-0  12026-3 0  9991
2 69114  89.0190  13.0606 0002249 106.5993 253.5405 13.51022805 16565

Acompanhe QIANFAN-155 em tempo real com AllMySat

Download on the App Store